sat.trackr.live / text

‹ back to catalog

STARLINK-34661

NORAD 64927 · 2025-157Z

PAYLOAD ACTIVE UNKNOWN

§ Identity

Operator
Country
US
Launch date
2025-07-26
Launch site
AFETR
Launch vehicle
Mass (kg)
RCS (m²)

Purposes: comms

External: N2YO · Heavens-Above · Gunter

§ Orbital elements

Epoch: 2026-09-20T10:08:42.538848Z

Period
93.85 min
Inclination
53.1591°
Eccentricity
0.0000594
Mean motion
15.34410844 rev/d
Perigee alt
462.3 km
Apogee alt
463.1 km
Semi-major
6,840.8 km
B*
5.8198e-4
RAAN
157.9264°
Arg perigee
241.3060°
Mean anomaly
118.7883°
Rev number
6,570

§ Raw data

STARLINK-346611 64927U 25157Z   26263.42271457  .00019344  00000+0  58198-3 0  99932 64927  53.1591 157.9264 0000594 241.3060 118.7883 15.34410844 65700

JSON: /api/v1/satellites/64927 · /tle

For live sub-satellite position, see the globe view (requires WebGL).

§ Visibility from observer

Set your observer location to see the next 7 days of passes ≥ 10°. The values pass through the URL so the page stays shareable.

No JS? Fill the form by hand. The geolocation button needs JavaScript.